Regional Weather Roundup
Issued by NWS

Home | Current Version | Previous Version | Text Only | Print | Product List | Glossary Off
Versions: 1 2 3 4 5 6 7 8 9 10 11 12 13 14 15 16 17 18 19 20 21 22 23 24 25 26 27 28 29 30 31 32 33 34 35 36 37 38 39 40 41 42 43 44 45 46 47 48 49 50

000
ASUS43 KLMK 221802
RWRKY
KENTUCKY REGIONAL WEATHER ROUNDUP
NATIONAL WEATHER SERVICE LOUISVILLE KY
100 PM EST SUN JAN 22 2017

NOTE "FAIR" INDICATES FEW OR NO CLOUDS BELOW 12,000 FEET
WITH NO SIGNIFICANT WEATHER AND/OR OBSTRUCTIONS TO VISIBILITY.

KYZ001>023-026-027-061>063-070>075-221900-
WESTERN AND SOUTH CENTRAL KENTUCKY

CITY           SKY/WX    TMP DP  RH WIND       PRES   REMARKS
PADUCAH        LGT RAIN  59  52  77 NE5       29.40F
HENDERSON      CLOUDY    57  48  72 NE8       29.43F
OWENSBORO      CLOUDY    59  52  77 E7        29.45F
HOPKINSVILLE   PTSUNNY   61  54  78 E6        29.40F
BOWLING GREEN  MOSUNNY   61  54  77 NE7       29.43F
GLASGOW        NOT AVBL
$$

KYZ024-025-028>034-038-045-046-053-221900-
NORTH CENTRAL KENTUCKY

CITY           SKY/WX    TMP DP  RH WIND       PRES   REMARKS
LOUISVILLE/SDF CLOUDY    59  50  72 NW3       29.45F
LOUISVILLE/LOU CLOUDY    61  51  70 N3        29.46F
FORT KNOX      CLOUDY    56  51  81 E5        29.44F
$$

KYZ035>037-039>044-047>052-055>060-089>105-221900-
NORTHEAST KENTUCKY

CITY           SKY/WX    TMP DP  RH WIND       PRES   REMARKS
LEXINGTON      CLOUDY    57  51  80 NE7       29.45F
COVINGTON      CLOUDY    58  51  78 NE8       29.48F
FRANKFORT      CLOUDY    58  49  72 NE9       29.45F
$$

KYZ054-064>069-076>088-106>120-221900-
SOUTHEAST KENTUCKY

CITY           SKY/WX    TMP DP  RH WIND       PRES   REMARKS
JACKSON        LGT RAIN  54  50  86 VRB5      29.46F
LONDON         CLOUDY    56  52  86 SE3       29.44F
SOMERSET       NOT AVBL
MIDDLESBORO    CLOUDY    53  53 100 CALM      29.46F
MONTICELLO     CLOUDY    55  52  89 VRB6      29.46F
$$





USA.gov is the U.S. government's official web portal to all federal, state and local government web resources and services.